This demonstration page uses our WeatherBlox Daily Observations layout. Learn more.

Left ArrowRight Arrow

53.62937, 11.41316

Hourly Observations for September 6, 2021

Temp ( °F °C ) Dew Point ( °F °C ) Humidity (%) Winds ( mph kmh ) Pressure ( in mb ) Visibility ( mi km ) Precip ( " mm )
5:50 am 05:50 Mostly Cloudy with Fog 48 9 48 9 100 100 VRB 1 2 30.21 1023 0 0 N/A
6:20 am 06:20 Mostly Clear with Fog 48 9 46 8 94 94 VRB 1 2 30.21 1023 0 0 N/A
6:50 am 06:50 Partly Cloudy with Fog 48 9 48 9 100 100 VRB 1 2 30.21 1023 0 0 N/A
7:20 am 07:20 Partly Cloudy with Fog 48 9 48 9 100 100 VRB 2 4 30.21 1023 0 0 N/A
7:50 am 07:50 Partly Cloudy with Fog 48 9 48 9 100 100 VRB 2 4 30.24 1024 0 0 N/A
8:20 am 08:20 Partly Cloudy with Fog 50 10 50 10 100 100 VRB 1 2 30.24 1024 0 0 N/A
8:50 am 08:50 Partly Cloudy with Fog 50 10 50 10 100 100 VRB 2 4 30.24 1024 0 0 N/A
9:20 am 09:20 Partly Cloudy with Fog 52 11 52 11 100 100 VRB 2 4 30.24 1024 0 0 N/A
9:50 am 09:50 Partly Cloudy with Fog 55 13 55 13 100 100 VRB 1 2 30.24 1024 1 1 N/A
10:20 am 10:20 Partly Cloudy with Mist and Fog 57 14 55 13 94 94 VRB 2 4 30.24 1024 3 5 N/A
10:50 am 10:50 Mostly Sunny 61 16 57 14 88 88 SSW 5 7 30.24 1024 30 48 N/A
11:20 am 11:20 Mostly Sunny 63 17 55 13 77 77 SSW 3 6 30.24 1024 30 48 N/A
11:50 am 11:50 Mostly Sunny 64 18 57 14 78 78 SSW 3 6 30.24 1024 30 48 N/A
12:20 pm 12:20 Mostly Sunny 66 19 55 13 68 68 SSW 5 7 30.24 1024 30 48 N/A
12:50 pm 12:50 Mostly Sunny 66 19 55 13 68 68 SW 6 9 30.24 1024 30 48 N/A
1:20 pm 13:20 Mostly Sunny 68 20 55 13 64 64 SW 6 9 30.24 1024 30 48 N/A
1:50 pm 13:50 Mostly Sunny 68 20 54 12 60 60 W 3 6 30.24 1024 30 48 N/A
2:20 pm 14:20 Mostly Sunny 68 20 55 13 64 64 WSW 3 6 30.24 1024 30 48 N/A
2:50 pm 14:50 Partly Cloudy 68 20 57 14 69 69 W 3 6 30.24 1024 30 48 N/A
3:20 pm 15:20 Partly Cloudy 68 20 55 13 64 64 W 6 9 30.24 1024 30 48 N/A
3:50 pm 15:50 Partly Cloudy 68 20 55 13 64 64 WSW 3 6 30.24 1024 30 48 N/A
4:20 pm 16:20 Mostly Sunny 68 20 55 13 64 64 VRB 2 4 30.21 1023 7 11 N/A
4:50 pm 16:50 Mostly Sunny 68 20 55 13 64 64 VRB 2 4 30.21 1023 30 48 N/A
5:20 pm 17:20 Mostly Sunny 68 20 55 13 64 64 WSW 3 6 30.21 1023 30 48 N/A
5:50 pm 17:50 Mostly Sunny 68 20 55 13 64 64 WSW 3 6 30.21 1023 30 48 N/A
6:20 pm 18:20 Mostly Sunny 66 19 55 13 68 68 WSW 5 7 30.21 1023 30 48 N/A
6:50 pm 18:50 Mostly Sunny 66 19 55 13 68 68 WSW 3 6 30.21 1023 30 48 N/A
7:20 pm 19:20 Partly Cloudy 66 19 55 13 68 68 VRB 2 4 30.21 1023 30 48 N/A
7:50 pm 19:50 Partly Cloudy 64 18 55 13 73 73 VRB 1 2 30.21 1023 30 48 N/A
8:20 pm 20:20 Mostly Clear 63 17 55 13 77 77 VRB 1 2 30.24 1024 7 11 N/A
8:50 pm 20:50 Mostly Clear 63 17 55 13 77 77 WSW 2 4 30.24 1024 7 11 N/A
9:20 pm 21:20 Mostly Clear 63 17 55 13 77 77 WSW 1 2 30.24 1024 7 11 N/A
9:50 pm 21:50 Mostly Clear 61 16 55 13 83 83 VRB 1 2 30.24 1024 7 11 N/A

Powered by AerisWeather